Simultaneous Nadir Overpasses (SNOs) Predictions

Prediction of SNOs between AQUA and NPP Satellite Orbit:

Table of predicted SNOs for the next 14.0 days since TLE Epoch: 7/23/2022
Index Date (AQUA) Time (AQUA) Lat,Lon (AQUA) SZA (AQUA ) Date (NPP) Time (NPP) Lat,Lon (NPP) SZA (NPP ) Distance(km) Time Diff (sec)
1 07/25/2022 00:33:01 -78.24,-119.58 104.75 07/25/2022 00:32:17 -78.24,-119.49 104.73 2.09 44
2 07/25/2022 01:22:16 78.68, 50.34 74.67 07/25/2022 01:22:50 78.68, 50.39 74.63 1.16 34
3 07/27/2022 15:59:28 78.19,-171.42 75.90 07/27/2022 15:58:30 78.19,-171.31 75.92 2.71 58
4 07/27/2022 16:48:45 -78.61, -1.64 104.67 07/27/2022 16:49:05 -78.61, -1.61 104.69 0.70 20
5 07/30/2022 07:26:02 -77.88, 135.56 103.11 07/30/2022 07:24:51 -77.88, 135.48 103.04 1.87 71
6 07/30/2022 08:15:15 78.41, -54.27 76.21 07/30/2022 08:15:22 78.40, -54.37 76.23 2.39 7
7 08/01/2022 23:41:40 -78.48,-105.50 103.25 08/01/2022 23:41:33 -78.48,-105.46 103.26 1.14 7
8 08/02/2022 00:30:55 78.90, 64.45 76.19 08/02/2022 00:32:06 78.90, 64.50 76.12 1.26 71
9 08/04/2022 15:08:03 78.49,-157.04 77.41 08/04/2022 15:07:43 78.50,-156.91 77.40 3.00 20



Historial Predications of SNOs between AQUA and NPP
